Theta_e
305 300 299 300 301 301 302 303 303 302 299 299 301 299 301 302 301 300 301 301 301 302 303 303 303 304 305 305 305 305 304 303 302 302 301 300 299 299 298 297 297 296 295 295
300 300 301 301 301 302 302 301 300 301 299 298 297 298 299 297 298 300 300 300 301 301 301 302 303 303 304 304 304 304 303 302 301 301 300 299 299 298 298 297 296 295 294 294
302 301 301 302 300 302 300 300 300 300 298 296 294 298 298 298 299 300 301 301 300 300 301 301 302 303 304 304 304 303 302 301 300 299 299 298 298 298 298 297 295 294 294 293
300 300 301 301 300 298 301 298 299 299 294 295 293 298 298 297 296 297 300 301 301 300 301 301 302 303 303 303 302 302 300 299 299 298 298 298 298 298 297 296 294 293 293 294
299 300 300 300 299 298 300 297 298 294 288 290 293 291 297 297 300 299 298 301 301 300 301 301 302 303 303 302 302 300 299 298 298 298 298 297 297 297 296 294 294 293 293 294
299 298 297 299 297 297 296 295 293 290 285 292 287 290 299 300 301 298 298 300 301 301 301 301 302 302 302 302 299 298 298 299 299 298 297 296 295 295 294 294 293 293 294 293
297 299 297 297 299 298 294 289 291 295 293 298 280 291 299 299 298 297 296 299 300 301 301 301 301 301 301 299 298 298 299 299 298 297 295 294 294 294 294 293 293 293 293 294
291 294 293 296 297 297 295 289 293 292 294 294 281 292 300 297 297 297 298 298 300 301 300 300 300 299 299 298 298 299 299 298 297 296 295 294 294 294 293 292 293 293 293 295
292 294 295 296 295 294 294 289 291 285 276 286 290 292 296 297 293 296 297 298 299 300 300 300 299 298 299 299 299 299 299 298 297 295 294 294 294 294 293 292 292 292 295 294
295 292 290 295 295 293 291 291 292 287 292 290 290 283 296 295 294 292 293 296 298 298 299 300 299 298 299 299 299 300 299 297 296 295 295 295 295 293 292 292 292 294 294 293
290 289 291 295 289 289 290 289 288 288 291 291 289 295 289 289 286 288 292 297 298 298 298 299 300 300 298 298 300 299 299 298 297 295 296 296 295 292 292 292 292 294 293 293
295 293 290 293 293 293 292 290 292 293 289 286 290 294 289 285 287 291 296 298 298 298 298 298 298 299 299 298 300 301 299 298 297 295 296 297 296 293 292 292 293 294 293 292
296 288 285 290 290 291 292 293 290 287 291 289 292 295 287 288 290 296 296 298 298 298 298 298 298 298 298 299 298 299 300 299 297 295 296 296 297 294 292 292 293 293 292 292
298 295 288 290 288 286 292 293 293 291 286 293 295 297 295 296 292 294 296 296 296 297 297 297 297 297 298 298 298 299 297 298 297 297 296 296 297 295 293 292 292 293 292 292
295 289 293 291 288 285 291 290 290 292 291 295 297 294 292 295 295 295 294 294 294 294 295 294 294 295 295 296 298 298 299 299 299 296 298 297 296 295 293 292 291 293 292 291
294 287 287 289 295 296 296 296 293 293 295 294 295 295 293 294 292 291 291 292 292 293 294 294 295 295 296 296 297 297 298 299 298 298 298 295 294 295 293 292 291 292 292 290
293 287 287 287 287 286 287 289 294 292 285 291 290 290 288 285 289 290 291 292 293 291 290 290 291 293 293 295 296 297 298 298 296 298 296 293 293 294 293 291 291 290 291 289
294 290 288 288 282 286 289 291 290 288 290 286 288 282 287 289 288 288 289 293 293 291 289 289 290 292 293 293 296 296 298 298 297 294 293 293 293 294 293 291 291 290 290 289
294 296 295 286 279 287 291 291 292 292 290 290 289 286 287 287 287 288 289 291 291 290 290 288 289 291 292 293 295 296 298 299 295 295 293 293 293 293 292 291 290 290 290 289
289 294 293 281 285 285 289 290 290 290 290 289 287 287 287 287 287 287 288 288 288 288 288 288 290 291 291 291 294 294 296 294 294 293 295 294 293 293 292 291 290 290 290 289
292 292 294 293 292 288 290 288 289 286 289 287 287 287 287 286 287 287 287 287 287 287 288 288 290 289 290 289 294 292 291 292 293 296 295 294 293 293 292 290 290 290 290 289
285 281 282 283 286 292 288 287 286 288 287 287 287 287 287 287 287 287 287 287 287 287 287 288 289 289 288 288 293 295 293 293 293 294 294 294 294 293 291 290 289 290 289 290
287 287 285 286 287 288 287 287 288 289 286 287 287 287 287 287 287 287 287 287 287 287 287 287 287 287 288 288 289 294 296 293 293 293 294 295 294 293 291 290 289 289 289 289
285 287 287 285 286 288 289 289 288 287 287 287 287 287 287 287 287 287 287 287 287 287 287 287 286 287 288 288 288 289 295 295 293 292 294 294 294 294 292 290 289 289 289 289
286 285 281 285 287 288 288 287 286 286 286 286 287 287 286 287 287 287 286 285 285 286 285 285 286 287 287 287 288 288 294 296 295 293 293 294 294 294 293 291 290 289 289 288
289 286 287 288 288 287 287 286 286 286 287 287 287 286 286 286 286 285 284 283 283 283 283 285 286 286 287 287 287 288 292 296 294 293 293 294 295 294 294 293 291 290 289 289
Wind_Speed
5 6 2 1 1 1 2 1 2 2 4 5 3 9 19 14 14 20 25 22 22 29 29 21 20 24 26 23 21 20 18 16 17 17 17 17 15 17 18 20 22 24 24 24
6 3 3 0 4 3 4 2 3 4 3 3 6 17 18 9 5 5 8 11 14 15 18 27 26 24 25 22 21 20 17 16 16 16 16 18 18 19 20 21 22 23 22 22
5 1 4 3 5 5 3 3 3 3 7 3 8 8 6 3 5 6 6 9 10 7 9 15 20 22 23 22 20 18 15 14 15 16 18 20 21 21 22 21 21 21 21 23
5 5 3 4 4 3 2 3 2 3 5 2 6 4 8 5 9 5 7 6 6 2 7 14 19 22 21 19 17 15 14 13 14 17 20 21 22 23 22 22 20 19 21 24
3 4 6 6 2 2 0 3 2 3 4 4 7 4 8 4 6 5 7 5 4 1 4 10 16 19 19 17 15 12 11 13 16 20 22 23 23 21 21 20 20 21 23 25
2 2 4 1 2 3 2 2 5 3 3 3 3 3 6 3 3 5 5 7 6 4 5 8 13 17 18 17 15 13 14 16 18 20 21 21 20 20 20 19 21 23 23 24
5 3 3 4 1 2 6 6 4 6 4 4 1 1 9 6 6 4 10 14 9 8 10 13 16 17 18 19 16 15 17 17 19 20 19 19 18 19 19 20 22 23 24 24
4 6 4 7 3 2 4 5 4 4 2 5 1 5 5 4 9 12 8 11 9 12 12 13 15 17 20 20 17 18 20 21 19 18 18 18 17 19 20 20 22 22 23 24
3 4 1 4 3 2 2 3 2 7 2 3 3 7 11 3 6 14 7 11 12 13 14 15 16 18 22 21 21 21 23 24 21 19 18 18 18 19 19 20 21 20 22 24
3 3 1 3 2 7 4 2 4 3 2 4 5 5 5 7 8 10 13 21 19 15 15 17 19 21 22 23 22 22 23 23 21 20 19 19 19 20 20 20 18 19 20 23
4 4 5 1 2 6 2 2 4 3 3 4 2 6 8 7 3 6 18 23 23 21 20 22 26 26 27 27 25 22 21 21 20 19 19 20 20 20 20 18 18 18 20 21
0 4 2 7 1 2 3 6 4 4 5 2 2 8 2 6 7 6 24 38 39 37 43 40 34 32 34 37 31 23 19 20 18 18 21 22 21 21 19 19 18 18 19 20
6 2 3 8 4 4 3 4 3 3 2 6 3 6 2 4 4 18 25 34 40 48 46 44 39 36 35 37 42 42 31 21 20 21 24 24 23 21 19 19 18 18 19 19
5 4 7 7 7 4 3 4 5 5 3 3 14 25 10 17 13 24 35 31 36 35 40 42 41 39 35 33 35 38 45 48 44 33 29 28 25 21 20 19 18 17 18 18
3 5 6 7 6 4 8 8 7 11 8 10 30 18 9 17 17 26 28 32 39 37 35 37 40 40 40 38 35 33 34 38 40 41 35 34 26 23 21 20 18 17 17 17
0 3 2 5 9 14 19 14 17 20 18 17 25 28 15 16 20 23 30 35 31 27 30 35 39 42 45 45 39 34 32 32 37 44 44 34 28 24 21 19 18 17 17 15
4 3 3 6 3 5 7 13 18 7 4 8 8 7 5 7 18 23 32 34 21 34 43 46 48 47 50 52 47 38 33 29 30 31 33 32 27 24 21 18 19 17 17 15
4 4 3 4 4 2 7 2 4 6 5 7 8 5 7 17 29 28 27 18 30 44 50 48 47 48 51 53 50 39 30 29 27 24 27 28 27 24 21 19 18 17 16 14
13 5 3 2 3 8 8 2 3 2 5 5 1 8 21 25 31 24 24 27 37 45 44 47 45 45 44 48 49 37 32 29 29 30 28 27 26 24 21 19 17 15 14 12
2 9 7 1 3 6 4 3 8 6 7 6 24 27 27 30 14 16 32 39 44 47 48 45 45 44 43 44 47 34 24 25 27 26 24 25 26 24 22 19 17 15 14 13
3 3 14 10 7 8 3 6 2 3 3 26 25 28 29 17 28 48 48 45 43 45 46 47 42 47 45 41 37 31 23 23 22 21 21 23 24 24 22 19 18 16 15 14
7 6 4 2 2 14 3 4 5 7 23 27 30 33 34 37 42 44 49 46 47 47 50 44 46 51 47 39 28 29 29 22 20 20 21 22 24 24 23 21 19 17 17 15
3 6 4 9 7 2 10 5 19 40 30 32 34 36 37 40 44 47 48 51 53 49 46 46 45 49 45 44 32 41 33 22 21 21 20 19 23 23 23 22 20 20 17 16
4 7 6 2 4 12 20 30 36 28 30 36 40 41 44 42 46 46 46 49 52 53 48 47 43 42 45 45 39 38 33 26 24 22 20 19 22 21 23 22 20 20 18 16
7 6 4 13 16 26 24 25 32 34 36 39 43 44 44 41 44 45 46 51 50 47 51 45 42 44 46 40 43 37 31 29 25 21 21 22 21 20 21 22 20 18 15 16
15 7 7 15 21 18 25 32 35 37 39 41 42 47 45 40 40 44 49 50 47 47 48 45 44 44 44 41 44 36 32 27 21 20 23 25 23 21 20 21 21 20 17 19
Wind_Direction
21 66 71 23 50 124 119 70 307 291 13 337 296 288 287 296 266 272 280 281 272 261 248 232 232 230 228 229 228 230 231 241 254 264 270 276 276 275 281 289 294 298 300 302
24 72 332 337 29 73 61 74 317 298 18 1 357 296 283 292 259 258 298 304 298 283 254 235 237 222 218 222 226 226 233 245 257 262 271 273 276 279 285 290 294 297 299 301
108 48 358 68 32 37 48 95 10 261 327 70 324 300 323 313 308 276 295 316 319 278 237 213 208 208 209 214 215 223 238 248 252 260 266 272 277 281 285 288 293 297 300 303
75 348 55 61 68 40 31 356 34 14 38 279 13 277 299 317 307 285 283 312 342 248 210 200 201 202 206 206 210 223 234 241 257 267 273 277 279 281 285 287 293 297 300 303
269 18 31 54 7 25 151 31 60 82 90 53 350 67 273 336 322 314 303 283 321 4 194 199 198 202 203 206 218 221 234 257 271 275 276 275 274 277 281 288 293 298 301 304
91 46 53 61 54 49 68 71 42 58 94 29 255 105 283 259 239 320 339 285 272 250 199 187 193 196 199 204 199 221 252 268 276 277 275 270 270 273 280 287 294 298 300 304
358 18 1 28 33 18 53 48 342 358 8 224 260 21 248 288 282 272 288 312 263 241 221 212 208 204 199 193 215 253 275 281 280 279 272 271 271 274 281 287 293 299 303 307
99 333 11 345 63 179 44 128 144 218 281 279 2 241 255 243 298 293 292 310 278 246 234 224 214 207 203 213 245 271 282 284 281 274 274 271 270 274 279 287 294 299 304 311
102 296 340 41 24 67 269 41 169 99 67 32 274 293 295 329 321 19 312 305 289 256 244 238 231 228 224 236 260 276 282 285 277 272 269 268 270 275 281 287 291 298 308 313
186 12 278 288 125 39 121 149 35 7 9 306 292 280 239 321 321 342 1 357 335 310 277 266 259 252 244 250 265 273 279 279 268 266 269 270 273 275 279 284 292 301 308 313
131 94 283 30 185 182 32 13 42 123 135 188 275 266 215 225 233 308 325 355 8 5 352 325 300 275 259 259 266 274 281 277 265 260 267 271 272 273 278 286 291 297 307 314
69 131 224 225 134 172 165 190 154 129 268 227 179 270 300 222 249 300 333 332 332 331 325 321 315 306 286 266 259 268 280 275 269 259 263 269 269 272 280 284 287 294 309 315
174 334 1 340 9 355 218 204 140 115 91 204 168 256 258 248 242 329 324 326 322 323 324 325 324 316 302 286 277 264 268 279 277 265 263 264 267 271 278 280 284 293 308 313
160 163 173 202 207 141 188 198 205 145 143 246 236 276 291 291 305 320 318 326 327 323 325 329 330 326 317 306 292 282 273 267 274 275 264 261 264 267 272 275 277 286 302 310
130 204 207 242 227 191 235 215 210 209 214 221 269 259 296 294 306 317 329 328 325 331 340 339 338 338 332 321 305 290 283 276 272 264 259 262 255 259 266 271 273 280 295 306
175 266 85 282 245 246 262 254 231 238 245 253 262 277 283 319 356 344 334 326 334 346 343 342 340 341 338 335 321 308 286 280 270 262 255 246 245 254 262 269 271 275 288 295
164 132 40 270 323 327 301 233 230 219 191 214 240 250 0 338 337 334 325 320 318 331 329 326 329 330 332 332 327 307 290 281 279 256 234 232 240 250 258 264 268 272 280 289
163 124 165 264 13 299 244 210 182 193 239 227 285 331 309 303 306 301 309 282 308 316 318 319 318 318 323 328 321 309 279 271 266 247 231 231 238 246 251 258 263 267 275 284
223 208 262 224 204 298 282 77 113 130 261 97 307 301 320 325 323 317 314 299 301 305 306 309 309 315 316 322 321 304 274 257 254 242 234 234 238 241 246 253 260 262 267 271
179 225 199 91 197 240 241 204 285 231 265 154 338 331 329 331 312 304 306 305 303 302 301 305 304 307 310 317 319 308 275 253 241 234 237 238 237 237 242 248 252 252 257 257
148 179 221 223 241 277 218 290 288 87 318 330 321 310 304 299 288 295 301 301 300 298 297 301 296 301 302 313 308 310 291 253 250 245 239 234 234 236 240 242 244 244 250 252
175 160 192 107 242 261 95 51 113 268 302 310 309 304 301 299 297 295 296 297 299 298 299 296 292 294 298 301 295 295 296 270 262 251 242 239 238 236 236 237 240 240 245 248
273 191 188 190 214 237 301 287 318 321 302 304 302 299 296 297 298 297 295 297 296 293 291 289 285 288 289 295 290 286 293 290 270 260 248 250 240 233 233 235 237 240 242 245
263 222 240 50 266 254 283 297 307 300 299 301 302 298 298 295 299 296 295 295 295 293 290 291 287 278 280 289 286 288 285 283 277 262 250 248 238 232 233 233 234 238 238 242
205 176 224 255 274 283 286 295 296 294 294 295 303 300 294 293 296 295 293 293 291 289 290 288 279 273 277 279 283 287 273 266 278 265 251 244 242 235 236 237 237 242 241 243
222 216 237 263 273 285 289 294 295 295 302 305 304 307 303 293 294 297 294 293 290 291 292 287 278 274 276 278 280 278 269 261 275 277 252 240 241 239 238 242 236 236 237 242